| time (UTC) | temp F | wind direction | speed knots | gust knots | rain 1hr in | rain 24hr in | rain mn in | humidity % | barometer mb |
| 20260504214517 | 78 | 56 | 3.5 | 8.7 | 0.00 | 0.00 | 0.00 | 31 | 1004.1 |
| 20260504213015 | 77 | 69 | 2.6 | 8.7 | 0.00 | 0.00 | 0.00 | 31 | 1004.2 |
| 20260504211512 | 78 | 55 | 4.3 | 7.8 | 0.00 | 0.00 | 0.00 | 33 | 1004.3 |
| 20260504210011 | 78 | 5 | 3.5 | 9.6 | 0.00 | 0.00 | 0.00 | 36 | 1004.3 |
| 20260504204511 | 78 | 42 | 4.3 | 8.7 | 0.00 | 0.00 | 0.00 | 35 | 1004.5 |
| 20260504203011 | 77 | 108 | 2.6 | 8.7 | 0.00 | 0.00 | 0.00 | 34 | 1004.5 |
| 20260504201507 | 76 | 101 | 2.6 | 7.8 | 0.00 | 0.00 | 0.00 | 34 | 1004.6 |
| 20260504200006 | 75 | 51 | 2.6 | 8.7 | 0.00 | 0.00 | 0.00 | 34 | 1004.6 |
| 20260504194504 | 76 | 95 | 4.3 | 8.7 | 0.00 | 0.00 | 0.00 | 34 | 1004.7 |
| 20260504193003 | 75 | 59 | 5.2 | 11.3 | 0.00 | 0.00 | 0.00 | 36 | 1004.8 |
| 20260504191501 | 74 | 109 | 4.3 | 9.6 | 0.00 | 0.00 | 0.00 | 35 | 1005.0 |
| 20260504190111 | 73 | 75 | 5.2 | 11.3 | 0.00 | 0.00 | 0.00 | 36 | 1005.0 |
| 20260504184615 | 74 | 65 | 5.2 | 10.4 | 0.00 | 0.00 | 0.00 | 39 | 1005.2 |
| 20260504183101 | 73 | 76 | 6.1 | 11.3 | 0.00 | 0.00 | 0.00 | 39 | 1005.2 |
| 20260504181556 | 72 | 70 | 5.2 | 13.0 | 0.00 | 0.00 | 0.00 | 39 | 1005.3 |
| 20260504180054 | 72 | 73 | 4.3 | 7.8 | 0.00 | 0.00 | 0.00 | 41 | 1005.3 |
| 20260504174552 | 71 | 35 | 3.5 | 9.6 | 0.00 | 0.00 | 0.00 | 41 | 1005.4 |
| 20260504173055 | 69 | 46 | 5.2 | 13.0 | 0.00 | 0.00 | 0.00 | 43 | 1005.4 |
| 20260504171547 | 66 | 76 | 6.1 | 10.4 | 0.00 | 0.00 | 0.00 | 44 | 1005.4 |
| 20260504081537 | 53 | 63 | 0.0 | 2.6 | 0.00 | 0.00 | 0.00 | 71 | 1004.6 |
| 20260504050019 | 61 | 164 | 0.0 | 1.7 | 0.00 | 0.00 | 0.00 | 55 | 1004.9 |
| 20260504044522 | 62 | 167 | 2.6 | 4.3 | 0.00 | 0.00 | 0.00 | 54 | 1004.9 |
| 20260504043018 | 62 | 178 | 2.6 | 4.3 | 0.00 | 0.00 | 0.00 | 52 | 1004.9 |
| 20260504041519 | 63 | 171 | 2.6 | 5.2 | 0.00 | 0.00 | 0.00 | 53 | 1004.8 |
| 20260504040017 | 64 | 164 | 1.7 | 3.5 | 0.00 | 0.00 | 0.00 | 51 | 1004.8 |
| 20260504034519 | 64 | 167 | 1.7 | 3.5 | 0.00 | 0.00 | 0.00 | 49 | 1004.7 |
| 20260504033016 | 66 | 169 | 2.6 | 4.3 | 0.00 | 0.00 | 0.00 | 48 | 1004.6 |
| 20260504031517 | 68 | 173 | 0.9 | 3.5 | 0.00 | 0.00 | 0.00 | 47 | 1004.6 |
| 20260504030035 | 70 | 197 | 0.9 | 2.6 | 0.00 | 0.00 | 0.00 | 42 | 1004.6 |
| 20260504024516 | 72 | 213 | 0.9 | 1.7 | 0.00 | 0.00 | 0.00 | 36 | 1004.6 |
| 20260504023014 | 74 | 275 | 0.0 | 0.9 | 0.00 | 0.00 | 0.00 | 33 | 1004.6 |
| 20260504021513 | 76 | 284 | 0.0 | 3.5 | 0.00 | 0.00 | 0.00 | 30 | 1004.7 |
| 20260504020012 | 77 | 5 | 0.9 | 3.5 | 0.00 | 0.00 | 0.00 | 28 | 1004.8 |
| 20260504014530 | 77 | 5 | 1.7 | 4.3 | 0.00 | 0.00 | 0.00 | 28 | 1005.0 |
| 20260504013009 | 78 | 325 | 1.7 | 7.8 | 0.00 | 0.00 | 0.00 | 27 | 1005.1 |
| 20260504011508 | 78 | 317 | 0.9 | 6.1 | 0.00 | 0.00 | 0.00 | 27 | 1005.2 |
| 20260504010007 | 78 | 345 | 3.5 | 7.8 | 0.00 | 0.00 | 0.00 | 27 | 1005.4 |
| 20260504004510 | 79 | 289 | 3.5 | 7.8 | 0.00 | 0.00 | 0.00 | 26 | 1005.6 |
| 20260504003012 | 79 | 272 | 1.7 | 7.0 | 0.00 | 0.00 | 0.00 | 28 | 1005.6 |
| 20260504001503 | 79 | 288 | 1.7 | 5.2 | 0.00 | 0.00 | 0.00 | 26 | 1005.8 |
| 20260504000002 | 79 | 254 | 0.9 | 8.7 | 0.00 | 0.00 | 0.00 | 25 | 1005.9 |
| 20260503234600 | 79 | 153 | 2.6 | 8.7 | 0.00 | 0.00 | 0.00 | 25 | 1006.0 |
| 20260503233100 | 79 | 287 | 3.5 | 7.8 | 0.00 | 0.00 | 0.00 | 25 | 1006.2 |
| 20260503231558 | 79 | 298 | 0.9 | 7.8 | 0.00 | 0.00 | 0.00 | 27 | 1006.4 |
| 20260503224552 | 79 | 317 | 3.5 | 7.8 | 0.00 | 0.00 | 0.00 | 25 | 1006.9 |
| 20260503223057 | 78 | 96 | 0.9 | 4.3 | 0.00 | 0.00 | 0.00 | 28 | 1007.1 |
| 20260503221552 | 79 | 246 | 1.7 | 7.8 | 0.00 | 0.00 | 0.00 | 24 | 1007.3 |
| 20260503220046 | 78 | 31 | 1.7 | 7.0 | 0.00 | 0.00 | 0.00 | 25 | 1007.6 |